Find Starlink 34936

NORAD ID: 65898 Int'l Des: 2025-224 Owner: SPXS Country: US Constellation: starlink operational
LEOCIRCULAR

Live Position

Loading 3D Globe...

About Starlink 34936

Description loading...

Upcoming Passes

Passes for default location (London). Set your location on the main map for personalized predictions.

Altitude History

Loading altitude history...

Two-Line Element Set

1 65898U 25224S 26105.44956572 .00007286 00000-0 25789-3 0 9994
2 65898 53.1605 200.5059 0001289 87.8223 272.2926 15.30197632 30504
Epoch: Apr 15, 2026 • Age: 14 hours

Current Status

Altitude 487.7 km
Velocity 7.62 km/s
Sub-Earth Point -36.81°S, 157.23°W
Launch Date Oct 7, 2025
Age 0.5 years
Type internet

Technical Details

Classification Payload
Mass 575.00 kg
Dry Mass 530.00 kg
Total Mass 575.00 kg
Length 0.30 m
Diameter 4.10 m
Span 29.00 m
Shape Box + pan
Manufacturer SPXS
Bus Type Starlink V2MO
Phase Status In Orbit
Owner/State SPXS/US

Most Searched